Location: St. Louis
(38.6270°N, 90.1994°W)
Time: 18:22:33
(UTC-06:00)

Courier 1B - Pass Details

Date: 07 December 2021
Orbit: 962 x 1209 km, 28.3° (Epoch: 26 January)

Event Time Altitude Azimuth Distance (km) Brightness Sun altitude
Rises 17:42:02 0° 258° (WSW) 4,054 12.8 -12.0°
Reaches altitude 10° 17:45:10 10° 250° (WSW) 3,063 11.6 -12.6°
Maximum altitude 17:51:53 36° 187° (S) 1,704 9.0 -13.8°
Drops below altitude 10° 17:58:16 10° 124° (SE) 2,900 9.6 -15.0°
Enters shadow 17:59:18 - 120° (ESE) 3,217 9.8 -15.2°
